User: anonymous   Login
Location: ????
(30.1475°N, 31.1342°E)
Time: 22:21:32
(UTC+00:00)
Language:

Atlas Centaur 2 - Orbit

View from above orbital plane
View from above orbital plane
View from above satellite
View from above satellite

Ground track
Ground track

The orbit data is extracted from the following two-line orbital elements,

1   694U 63047A   24108.31246140  .00004127  00000-0  51369-3 0  9996
2   694  30.3537  86.6359 0566943 127.3391 238.0242 14.07253660 33593
Epoch (UTC): 17 April 2024 07:29:56
Eccentricity: 0.0566943
inclination: 30.3537°
perigee height: 458 km
apogee height: 1279 km
right ascension of ascending node: 86.6359°
argument of perigee: 127.3391°
revolutions per day: 14.07253660
mean anomaly at epoch: 238.0242°
orbit number at epoch: 3359

The dashed part of the orbit path shows where the satellite is in the earth's shadow,  

DLR